This is the latest recevied weather packets stored in our database for station/object HK6REC-25. If no packets are shown the sender has not sent any weather packets the latest 10 day(s).
| Time | Temp. | Humidity | Pressure | Rain* | Wind** | Luminosity | Snow |
|---|---|---|---|---|---|---|---|
| 1777735924 | 17.22° C | 86% | 1014 hPa | 0 mm | - | - | - |
| 1777734123 | 18.33° C | 86% | 1014 hPa | 0 mm | - | - | - |
| 1777732322 | 16.67° C | 87% | 1014 hPa | 0 mm | - | - | - |
| 1777730521 | 17.78° C | 87% | 1015 hPa | 0 mm | - | - | - |
| 1777728721 | 15.56° C | 93% | 1015 hPa | 0 mm | - | - | - |
| 1777726920 | 16.67° C | 93% | 1015 hPa | 0 mm | - | - | - |
| 1777725119 | 14.44° C | 91% | 1014 hPa | 0 mm | - | - | - |
| 1777723318 | 15.56° C | 91% | 1014 hPa | 0 mm | - | - | - |
| 1777721517 | 16.67° C | 91% | 1014 hPa | 0 mm | - | - | - |
| 1777719716 | 17.78° C | 91% | 1014 hPa | 0 mm | - | - | - |
| 1777717915 | 13.33° C | 94% | 1014 hPa | 0 mm | - | - | - |
| 1777716114 | 14.44° C | 94% | 1014 hPa | 0 mm | - | - | - |
| 1777714313 | 15.56° C | 94% | 1014 hPa | 0 mm | - | - | - |
| 1777712512 | 12.78° C | 93% | 1014 hPa | 0 mm | - | - | - |
| 1777710712 | 13.89° C | 93% | 1013 hPa | 0 mm | - | - | - |
| 1777708911 | 15° C | 93% | 1014 hPa | 0 mm | - | - | - |
| 1777707110 | 13.89° C | 92% | 1013 hPa | 0 mm | - | - | - |
| 1777705309 | 15° C | 92% | 1014 hPa | 0 mm | - | - | - |
| 1777703508 | 13.89° C | 91% | 1013 hPa | 0 mm | - | - | - |
| 1777701707 | 15° C | 91% | 1014 hPa | 0 mm | - | - | - |
| 1777699907 | 16.11° C | 91% | 1014 hPa | 0 mm | - | - | - |
| 1777698105 | 17.22° C | 91% | 1015 hPa | 0 mm | - | - | - |
| 1777694503 | 14.44° C | 91% | 1015 hPa | 0 mm | - | - | - |
| 1777692701 | 13.89° C | 88% | 1014 hPa | 0 mm | - | - | - |
| 1777690901 | 15° C | 88% | 1014 hPa | 0 mm | - | - | - |
* Rain latest hour (hover to see other rain measurements)
** Current wind speed in m/s (hover to see current wind gust speed)